Starlink 32346

operational
NORAD ID: 61849 Int'l Des: 2024-202 Owner: SPXS Country: US Constellation: starlink
LEOCIRCULAR

关于 Starlink 32346

正在加载描述...

实时位置

正在加载3D地球...

即将过境

高度历史

Altitude vs Time

uPlot chart will show altitude changes over time

两行轨道根数

1 61849U 24202E 25307.48286597 .00002211 00000-0 89819-4 0 9999
2 61849 43.0012 219.6925 0001548 264.9403 95.1272 15.27590906 56157
Epoch: Nov 3, 2025 • Age: 34 hours

当前状态

高度 484.3 km
速度 7.62 km/s
星下点 -9.67°S, 37°E
发射日期 Nov 7, 2024
运行时间 0.9 years
类型 internet

技术详情

分类 Payload
质量 730.00 kg
干质量 700.00 kg
总质量 730.00 kg
长度 0.30 m
直径 4.10 m
跨度 29.00 m
形状 Box + pan
制造商 SPXS
平台类型 Starlink V2M
阶段状态 In Orbit
所有者/国家 SPXS/US

大型星座

Loading constellations...